Liberal, KS

7:42 AM CST on February 12, 2016 (GMT -0600)
Liberal Municipal

Weather History for KLBL - June, 2013

Change the Weather History Date:

Thursday, June 20, 2013

  Actual Average Record
Temperature  
Mean Temperature 78 °F -  
Max Temperature 93 °F 91 °F 106 °F (1952)
Min Temperature 64 °F 61 °F 46 °F (1973)
Cooling Degree Days 14    
Growing Degree Days 28 (Base 50)    
Moisture  
Dew Point 62 °F    
Average Humidity 58    
Maximum Humidity 88    
Minimum Humidity 38    
Precipitation  
Precipitation 0.00 in - - ()
Sea Level Pressure  
Sea Level Pressure 29.88 in    
Wind  
Wind Speed 18 mph (South)    
Max Wind Speed 30 mph    
Max Gust Speed 38 mph    
Visibility 10 miles    
Events      
Averages and records for this station are not official NWS values.
T = Trace of Precipitation, MM = Missing Value Source: NWS Daily Summary

Daily Weather History Graph

Daily Weather History Graph

Search for Another Location

Airport or City:

Trip Planner

Search our weather history database for the weather conditions in past years. The results will help you decide how hot, cold, wet, or windy it might be!

Date:

Astronomy

Jun. 20, 2013 Rise Set
Actual Time 6:24 AM CDT 9:06 PM CDT
Civil Twilight 5:53 AM CDT 9:37 PM CDT
Nautical Twilight 5:14 AM CDT 10:16 PM CDT
Astronomical Twilight 4:31 AM CDT 10:59 PM CDT
Moon 6:13 PM CDT (6/20) 3:49 AM CDT (6/20)
Length of Visible Light 15h 44m
Length of Day
14h 42m
Waxing Gibbous, 89% of the Moon is Illuminated
Jun 20
Waxing Gibbous
Jun 23
Full
Jun 29
Last Quarter
Jul 8
New
Jul 15
First Quarter

Hourly Weather History & Observations

Time (CDT) Temp. Heat Index Dew Point Humidity Pressure Visibility Wind Dir Wind Speed Gust Speed Precip Events Conditions
12:15 AM 69.8 °F - 59.0 °F 68% 29.93 in 10.0 mi SSE 18.4 mph - N/A   Clear
12:35 AM 69.8 °F - 60.8 °F 73% 29.89 in 10.0 mi SSE 18.4 mph - N/A   Clear
12:55 AM 69.8 °F - 59.0 °F 68% 29.90 in 10.0 mi South 20.7 mph 26.5 mph N/A   Clear
1:15 AM 71.6 °F - 59.0 °F 64% 29.91 in 10.0 mi SE 23.0 mph 29.9 mph N/A   Clear
1:35 AM 69.8 °F - 57.2 °F 64% 29.91 in 10.0 mi SSE 16.1 mph 21.9 mph N/A   Clear
1:55 AM 69.8 °F - 57.2 °F 64% 29.90 in 10.0 mi SSE 17.3 mph - N/A   Clear
2:15 AM 69.8 °F - 57.2 °F 64% 29.92 in 10.0 mi SSE 11.5 mph - N/A   Clear
2:35 AM 68.0 °F - 57.2 °F 68% 29.91 in 10.0 mi SSE 10.4 mph - N/A   Clear
2:55 AM 66.2 °F - 57.2 °F 73% 29.91 in 10.0 mi South 9.2 mph - N/A   Clear
3:15 AM 66.2 °F - 57.2 °F 73% 29.91 in 10.0 mi South 9.2 mph - N/A   Clear
3:35 AM 66.2 °F - 57.2 °F 73% 29.91 in 10.0 mi South 10.4 mph - N/A   Clear
3:55 AM 66.2 °F - 57.2 °F 73% 29.91 in 10.0 mi South 9.2 mph - N/A   Clear
4:15 AM 66.2 °F - 57.2 °F 73% 29.90 in 10.0 mi SSE 9.2 mph - N/A   Clear
4:35 AM 64.4 °F - 57.2 °F 77% 29.90 in 10.0 mi South 11.5 mph - N/A   Clear
4:55 AM 64.4 °F - 59.0 °F 83% 29.90 in 10.0 mi SSE 9.2 mph - N/A   Clear
5:15 AM 64.4 °F - 59.0 °F 83% 29.90 in 10.0 mi SSE 10.4 mph - N/A   Clear
5:35 AM 64.4 °F - 59.0 °F 83% 29.90 in 10.0 mi SSE 11.5 mph - N/A   Clear
5:55 AM 64.4 °F - 59.0 °F 83% 29.90 in 10.0 mi SSE 11.5 mph - N/A   Clear
6:15 AM 64.4 °F - 59.0 °F 83% 29.90 in 8.0 mi South 11.5 mph - N/A   Clear
6:35 AM 64.4 °F - 59.0 °F 83% 29.90 in 5.0 mi SSE 12.7 mph - N/A   Clear
6:55 AM 64.4 °F - 60.8 °F 88% 29.90 in 5.0 mi SSE 15.0 mph 18.4 mph N/A   Clear
7:15 AM 64.4 °F - 60.8 °F 88% 29.90 in 6.0 mi South 15.0 mph 19.6 mph N/A   Clear
7:35 AM 66.2 °F - 60.8 °F 83% 29.89 in 8.0 mi South 17.3 mph - N/A   Clear
7:55 AM 66.2 °F - 60.8 °F 83% 29.90 in 10.0 mi South 17.3 mph 25.3 mph N/A   Clear
8:15 AM 68.0 °F - 62.6 °F 83% 29.90 in 10.0 mi South 17.3 mph 23.0 mph N/A   Clear
8:35 AM 69.8 °F - 62.6 °F 78% 29.90 in 10.0 mi South 19.6 mph - N/A   Clear
8:55 AM 71.6 °F - 64.4 °F 78% 29.90 in 10.0 mi South 23.0 mph 27.6 mph N/A   Clear
9:15 AM 73.4 °F - 64.4 °F 73% 29.90 in 10.0 mi South 20.7 mph - N/A   Clear
9:35 AM 75.2 °F - 64.4 °F 69% 29.90 in 10.0 mi SSW 8.1 mph - N/A   Clear
9:55 AM 77.0 °F - 66.2 °F 69% 29.90 in 10.0 mi South 21.9 mph 25.3 mph N/A   Clear
10:15 AM 78.8 °F - 66.2 °F 65% 29.90 in - South 20.7 mph 27.6 mph N/A   Clear
10:35 AM 80.6 °F 82.7 °F 66.2 °F 61% 29.90 in - South 20.7 mph 27.6 mph N/A   Clear
10:55 AM 80.6 °F 82.7 °F 66.2 °F 61% 29.91 in - South 23.0 mph - N/A   Clear
11:15 AM 82.4 °F 84.6 °F 66.2 °F 58% 29.91 in - SSW 20.7 mph 28.8 mph N/A   Clear
11:35 AM 82.4 °F 84.6 °F 66.2 °F 58% 29.91 in - South 23.0 mph - N/A   Clear
11:55 AM 84.2 °F 86.6 °F 66.2 °F 55% 29.91 in 10.0 mi SSW 23.0 mph 28.8 mph N/A   Clear
12:15 PM 86.0 °F 88.2 °F 66.2 °F 51% 29.91 in 10.0 mi SSW 21.9 mph 27.6 mph N/A   Clear
12:35 PM 87.8 °F 89.4 °F 64.4 °F 46% 29.90 in 10.0 mi SSW 21.9 mph 25.3 mph N/A   Clear
12:55 PM 87.8 °F 89.4 °F 64.4 °F 46% 29.90 in 10.0 mi South 21.9 mph 28.8 mph N/A   Clear
1:15 PM - - - N/A% 29.89 in 10.0 mi South 23.0 mph 29.9 mph N/A   Clear
1:35 PM - - - N/A% - - North - - N/A   Unknown
1:55 PM 89.6 °F 92.2 °F 66.2 °F 46% 29.89 in 10.0 mi SSW 23.0 mph 27.6 mph N/A   Unknown
2:15 PM 91.4 °F 94.0 °F 66.2 °F 43% 29.89 in 10.0 mi South 25.3 mph 32.2 mph N/A   Clear
2:35 PM 91.4 °F 94.0 °F 66.2 °F 43% 29.88 in 10.0 mi South 26.5 mph 33.4 mph N/A   Clear
2:55 PM 91.4 °F 94.0 °F 66.2 °F 43% 29.88 in 10.0 mi SSW 26.5 mph 33.4 mph N/A   Clear
3:15 PM 93.2 °F 96.2 °F 66.2 °F 41% 29.87 in 10.0 mi South 21.9 mph 31.1 mph N/A   Clear
3:35 PM 93.2 °F 94.9 °F 64.4 °F 38% 29.87 in 10.0 mi SSW 23.0 mph 31.1 mph N/A   Clear
3:55 PM 93.2 °F 94.9 °F 64.4 °F 38% 29.87 in 10.0 mi South 23.0 mph 26.5 mph N/A   Clear
4:15 PM 93.2 °F 94.9 °F 64.4 °F 38% 29.86 in 10.0 mi South 27.6 mph 31.1 mph N/A   Clear
4:35 PM 93.2 °F 96.2 °F 66.2 °F 41% 29.86 in 10.0 mi South 23.0 mph 32.2 mph N/A   Clear
4:55 PM 93.2 °F 94.9 °F 64.4 °F 38% 29.86 in 10.0 mi South 28.8 mph 34.5 mph N/A   Clear
5:15 PM 93.2 °F 94.9 °F 64.4 °F 38% 29.85 in 10.0 mi South 21.9 mph 31.1 mph N/A   Clear
5:35 PM 93.2 °F 94.9 °F 64.4 °F 38% 29.84 in 10.0 mi South 27.6 mph 33.4 mph N/A   Clear
5:55 PM 93.2 °F 94.9 °F 64.4 °F 38% 29.83 in 10.0 mi South 26.5 mph 34.5 mph N/A   Clear
6:15 PM 93.2 °F 94.9 °F 64.4 °F 38% 29.83 in 10.0 mi South 29.9 mph 34.5 mph N/A   Clear
6:35 PM 93.2 °F 94.9 °F 64.4 °F 38% 29.83 in 10.0 mi South 28.8 mph 35.7 mph N/A   Clear
6:55 PM 93.2 °F 96.2 °F 66.2 °F 41% 29.82 in 10.0 mi South 25.3 mph 34.5 mph N/A   Clear
7:15 PM 91.4 °F 94.0 °F 66.2 °F 43% 29.82 in 10.0 mi South 29.9 mph 36.8 mph N/A   Clear
7:35 PM 91.4 °F 94.0 °F 66.2 °F 43% 29.82 in 10.0 mi South 26.5 mph 35.7 mph N/A   Clear
7:55 PM 89.6 °F 92.2 °F 66.2 °F 46% 29.82 in 10.0 mi South 25.3 mph 38.0 mph N/A   Clear
8:15 PM 87.8 °F 89.4 °F 64.4 °F 46% 29.83 in 10.0 mi South 24.2 mph 31.1 mph N/A   Clear
8:35 PM 87.8 °F 89.4 °F 64.4 °F 46% 29.84 in 10.0 mi South 25.3 mph 31.1 mph N/A   Clear
8:55 PM 86.0 °F 86.6 °F 62.6 °F 45% 29.85 in 10.0 mi South 23.0 mph 31.1 mph N/A   Clear
9:15 PM 84.2 °F 85.0 °F 62.6 °F 48% 29.85 in 10.0 mi South 20.7 mph 29.9 mph N/A   Clear
9:35 PM 84.2 °F 84.4 °F 60.8 °F 45% 29.86 in 10.0 mi South 19.6 mph - N/A   Clear
9:55 PM 82.4 °F 82.9 °F 60.8 °F 48% 29.87 in 10.0 mi South 24.2 mph - N/A   Clear
10:15 PM 82.4 °F 82.9 °F 60.8 °F 48% 29.87 in 10.0 mi South 21.9 mph 28.8 mph N/A   Clear
10:35 PM 82.4 °F 82.9 °F 60.8 °F 48% 29.87 in 10.0 mi South 24.2 mph - N/A   Clear
10:55 PM 82.4 °F 82.5 °F 59.0 °F 45% 29.87 in 10.0 mi South 19.6 mph 29.9 mph N/A   Clear
11:15 PM 80.6 °F 81.1 °F 59.0 °F 48% 29.87 in 10.0 mi South 18.4 mph 26.5 mph N/A   Clear
11:35 PM 80.6 °F 80.8 °F 57.2 °F 45% 29.87 in 10.0 mi South 18.4 mph - N/A   Clear
11:55 PM 80.6 °F 80.8 °F 57.2 °F 45% 29.88 in 10.0 mi South 17.3 mph 23.0 mph N/A   Clear